Tracking 31027 objects as of 19-Jul-2025
HD Live streaming from Space Station
objects crossing your sky now

INSAT 4A

Track INSAT 4A now!
INSAT 4A is classified as:


NORAD ID: 28911
Int'l Code: 2005-049A
Perigee: 36,074.0 km
Apogee: 36,121.7 km
Inclination: 5.6 °
Period: 1,451.7 minutes
Semi major axis: 42468 km
RCS: 12.5892 m2 (large)
Launch date: December 21, 2005
Source: India (IND)
Launch site: FRENCH GUIANA (FRGUI)
Your satellite tracking list
FENGYUN 1C DEB
Track 1 satellite(s)




NASA's NSSDC Master Catalog

Two Line Element Set (TLE):
1 28911U 05049A   25199.25192953  .00000000  00000-0  00000-0 0  9991
2 28911   5.5810  75.8436 0005609 106.2340 107.6976  0.99196643 42112
Source of the keplerian elements: AFSPC